Date String (YYYY-MM-DD hh:mm:ss) UTC,Instrument flags,Ambient pressure (hPa),Sample flow (lpm),Bypass flow (lpm),Sample temperature (°C),Ambient temperature (°C),ASC tube jacket temperature (°C),LED temperature (°C),Box temperature (°C),Sample RH (%),Span deviation,Mass concentration (μg/m³),Mass concentration (μg/m³),Mass concentration (μg/m³)
DateTimeUTC,F1_M11,P_M11,Q1_M11,Q2_M11,T1_M11,T2_M11,T3_M11,T4_M11,T5_M11,U1_M11,ZSPAN_M11,X2_M11,X0_M11,X1_M11
2022-04-15 18:00:00,,0819.8,5.00,0.00,24.8,24.0,00.0,33.6,26.7,12.3,0000.0,0004.44,0012.86,0003.13
2022-04-15 18:01:00,,0819.8,5.02,0.00,24.8,24.0,00.0,33.6,26.7,12.4,0000.0,0004.64,0014.03,0003.15
2022-04-15 18:02:00,,0819.8,5.00,0.00,24.8,24.0,00.0,33.6,26.7,12.3,0000.0,0004.78,0015.29,0003.20
2022-04-15 18:03:00,,0819.9,5.00,0.00,24.8,24.0,00.0,33.7,26.7,12.3,0000.0,0004.86,0017.45,0003.25
2022-04-15 18:04:00,,0819.9,5.00,0.00,24.8,24.0,00.0,33.7,26.7,12.4,0000.0,0004.97,0018.26,0003.32
2022-04-15 18:05:00,,0819.9,5.01,0.00,24.8,24.0,00.0,33.7,26.7,12.8,0000.0,0005.06,0019.24,0003.40
2022-04-15 18:06:00,,0819.8,4.99,0.00,24.8,24.0,00.0,33.7,26.7,13.0,0000.0,0005.03,0019.36,0003.42
2022-04-15 18:07:00,,0819.8,5.01,0.00,24.8,24.0,00.0,33.7,26.7,13.1,0000.0,0004.94,0019.07,0003.39
2022-04-15 18:08:00,,0819.8,4.99,0.00,24.9,24.1,00.0,33.7,26.7,13.6,0000.0,0004.87,0018.69,0003.35
2022-04-15 18:09:00,,0819.8,5.00,0.00,24.9,24.1,00.0,33.7,26.7,14.0,0000.0,0004.80,0017.59,0003.34
2022-04-15 18:10:00,,0819.9,5.01,0.00,24.9,24.1,00.0,33.7,26.7,13.8,0000.0,0004.85,0018.10,0003.36
2022-04-15 18:11:00,,0819.8,5.00,0.00,24.9,24.1,00.0,33.7,26.7,14.5,0000.0,0004.68,0016.67,0003.23
2022-04-15 18:12:00,,0819.8,4.99,0.00,24.9,24.1,00.0,33.7,26.8,14.7,0000.0,0004.35,0015.33,0003.05
2022-04-15 18:13:00,,0819.7,5.00,0.00,24.9,24.1,00.0,33.7,26.8,14.4,0000.0,0004.03,0013.93,0002.79
2022-04-15 18:14:00,,0819.7,5.02,0.00,24.9,24.1,00.0,33.7,26.8,14.4,0000.0,0003.78,0011.75,0002.54
2022-04-15 18:15:00,,0819.7,4.99,0.00,25.0,24.1,00.0,33.8,26.8,14.3,0000.0,0003.62,0010.75,0002.31
2022-04-15 18:16:00,,0819.7,4.99,0.00,25.0,24.1,00.0,33.8,26.8,14.5,0000.0,0003.49,0009.75,0002.13
2022-04-15 18:17:00,,0819.7,4.99,0.00,25.0,24.1,00.0,33.8,26.8,14.5,0000.0,0003.49,0009.41,0002.08
2022-04-15 18:18:00,,0819.6,5.02,0.00,25.0,24.1,00.0,33.8,26.8,14.7,0000.0,0003.48,0009.63,0002.09
2022-04-15 18:19:00,,0819.6,5.00,0.00,25.0,24.1,00.0,33.8,26.8,14.1,0000.0,0003.46,0009.56,0002.09
2022-04-15 18:20:00,,0819.5,4.99,0.00,25.0,24.1,00.0,33.8,26.9,13.9,0000.0,0003.45,0009.71,0002.05
2022-04-15 18:21:00,,0819.5,5.00,0.00,25.0,24.1,00.0,33.8,26.8,13.6,0000.0,0003.39,0009.30,0001.93
2022-04-15 18:22:00,,0819.5,5.01,0.00,25.0,24.1,00.0,33.8,26.8,13.8,0000.0,0003.36,0009.54,0001.90
2022-04-15 18:23:00,,0819.5,5.00,0.00,25.0,24.1,00.0,33.9,26.9,13.8,0000.0,0003.37,0009.56,0001.89
2022-04-15 18:24:00,,0819.5,4.99,0.00,25.0,24.1,00.0,33.9,26.8,13.7,0000.0,0003.36,0009.04,0001.88
2022-04-15 18:25:00,,0819.4,5.01,0.00,25.0,24.1,00.0,33.9,26.8,13.7,0000.0,0003.32,0008.43,0001.86
2022-04-15 18:26:00,,0819.5,5.01,0.00,25.0,24.1,00.0,33.9,26.8,13.3,0000.0,0003.29,0008.35,0001.86
2022-04-15 18:27:00,,0819.6,4.99,0.00,25.1,24.1,00.0,33.9,26.8,13.3,0000.0,0003.26,0008.27,0001.84
2022-04-15 18:28:00,,0819.5,5.00,0.00,25.1,24.1,00.0,33.9,26.9,13.5,0000.0,0003.24,0008.22,0001.83
2022-04-15 18:29:00,,0819.4,5.01,0.00,25.1,24.1,00.0,33.9,26.9,14.2,0000.0,0003.28,0008.11,0001.83
2022-04-15 18:30:00,,0819.5,4.99,0.00,25.1,24.1,00.0,33.9,26.9,13.5,0000.0,0003.26,0007.81,0001.82
2022-04-15 18:31:00,,0819.5,4.99,0.00,25.1,24.1,00.0,33.9,26.9,13.0,0000.0,0003.24,0007.73,0001.81
2022-04-15 18:32:00,,0819.5,5.01,0.00,25.1,24.1,00.0,33.9,26.9,13.4,0000.0,0003.22,0008.23,0001.82
2022-04-15 18:33:00,,0819.5,5.01,0.00,25.1,24.1,00.0,34.0,26.9,13.6,0000.0,0003.23,0008.29,0001.83
2022-04-15 18:34:00,,0819.4,5.00,0.00,25.1,24.1,00.0,34.0,26.9,13.6,0000.0,0003.25,0008.45,0001.84
2022-04-15 18:35:00,,0819.5,4.99,0.00,25.1,24.1,00.0,34.0,26.9,14.0,0000.0,0003.26,0008.63,0001.83
2022-04-15 18:36:00,,0819.5,5.00,0.00,25.1,24.1,00.0,34.0,26.9,14.0,0000.0,0003.30,0008.84,0001.84
2022-04-15 18:37:00,,0819.5,5.00,0.00,25.1,24.1,00.0,34.0,26.9,14.0,0000.0,0003.32,0008.91,0001.85
2022-04-15 18:38:00,,0819.4,4.99,0.00,25.1,24.1,00.0,34.0,26.9,13.9,0000.0,0003.33,0008.95,0001.86
2022-04-15 18:39:00,,0819.4,5.02,0.00,25.2,24.1,00.0,34.0,27.0,13.0,0000.0,0003.33,0009.00,0001.86
2022-04-15 18:40:00,,0819.3,4.99,0.00,25.2,24.1,00.0,34.0,27.0,12.5,0000.0,0003.34,0009.03,0001.87
2022-04-15 18:41:00,,0819.4,5.00,0.00,25.2,24.1,00.0,34.0,26.9,12.8,0000.0,0003.39,0009.13,0001.87
2022-04-15 18:42:00,,0819.3,5.02,0.00,25.2,24.1,00.0,34.0,26.9,12.9,0000.0,0003.46,0009.26,0001.89
2022-04-15 18:43:00,,0819.3,4.98,0.00,25.2,24.1,00.0,34.0,27.0,13.2,0000.0,0003.50,0008.82,0001.89
2022-04-15 18:44:00,,0819.4,5.00,0.00,25.2,24.1,00.0,34.0,27.0,13.5,0000.0,0003.49,0008.30,0001.88
2022-04-15 18:45:00,,0819.3,5.01,0.00,25.2,24.1,00.0,34.1,27.0,13.6,0000.0,0003.44,0008.03,0001.87
2022-04-15 18:46:00,,0819.4,4.99,0.00,25.2,24.2,00.0,34.1,27.0,13.2,0000.0,0003.44,0007.88,0001.89
2022-04-15 18:47:00,,0819.4,5.00,0.00,25.2,24.2,00.0,34.1,27.0,13.6,0000.0,0003.48,0007.94,0001.90
2022-04-15 18:48:00,,0819.3,5.01,0.00,25.2,24.2,00.0,34.1,27.0,13.8,0000.0,0003.44,0007.85,0001.89
2022-04-15 18:49:00,,0819.3,4.99,0.00,25.2,24.2,00.0,34.1,27.0,13.7,0000.0,0003.49,0008.12,0001.90
2022-04-15 18:50:00,,0819.2,4.99,0.00,25.2,24.2,00.0,34.1,27.0,13.6,0000.0,0003.50,0008.81,0001.90
2022-04-15 18:51:00,,0819.2,5.01,0.00,25.2,24.2,00.0,34.1,27.0,13.6,0000.0,0003.49,0008.87,0001.91
2022-04-15 18:52:00,,0819.2,4.99,0.00,25.2,24.2,00.0,34.1,27.0,13.6,0000.0,0003.49,0008.89,0001.92
2022-04-15 18:53:00,,0819.3,4.98,0.00,25.3,24.2,00.0,34.1,27.0,13.4,0000.0,0003.46,0008.67,0001.93
2022-04-15 18:54:00,,0819.3,5.02,0.00,25.3,24.2,00.0,34.1,27.1,13.3,0000.0,0003.44,0008.39,0001.93
2022-04-15 18:55:00,,0819.2,4.99,0.00,25.3,24.3,00.0,34.1,27.1,13.2,0000.0,0003.40,0008.33,0001.94
2022-04-15 18:56:00,,0819.2,5.01,0.00,25.3,24.3,00.0,34.1,27.1,13.2,0000.0,0003.39,0008.47,0001.94
2022-04-15 18:57:00,,0819.3,4.99,0.00,25.3,24.3,00.0,34.2,27.1,13.3,0000.0,0003.41,0008.65,0001.95
2022-04-15 18:58:00,,0819.3,5.02,0.00,25.3,24.3,00.0,34.2,27.2,13.4,0000.0,0003.36,0008.59,0001.94
2022-04-15 18:59:00,,0819.2,4.99,0.00,25.3,24.4,00.0,34.2,27.2,13.4,0000.0,0003.34,0008.44,0001.95
